W0WC Weather Reports


Display with metric or nautical units.
time (UTC)temp
F
wind
direction
speed
MPH
gust
MPH
rain 1hr
in
rain 24hr
in
rain mn
in
humidity
%
barometer
mb
20260510115849 60 66 1.0 1.0 0.00 0.00 0.00 77 1016.5
20260510115346 60 18 1.0 1.0 0.00 0.00 0.00 77 1016.5
20260510114842 60 22 1.0 1.0 0.00 0.00 0.00 76 1016.3
20260510114339 60 22 3.0 6.0 0.00 0.00 0.00 76 1016.2
20260510113839 60 10 3.0 4.0 0.00 0.00 0.00 76 1016.0
20260510113336 60 25 2.0 4.0 0.00 0.00 0.00 76 1016.0
20260510112833 60 29 1.0 2.0 0.00 0.00 0.00 75 1015.9
20260510112330 61 12 1.0 1.0 0.00 0.00 0.00 75 1016.0
20260510111825 61 14 4.0 4.0 0.00 0.00 0.00 75 1015.9
20260510111323 61 14 4.0 4.0 0.00 0.00 0.00 75 1016.1
20260510110822 61 21 1.0 2.0 0.00 0.00 0.00 75 1015.9
20260510110321 61 27 2.0 3.0 0.00 0.00 0.00 75 1015.4
20260510105816 61 45 2.0 3.0 0.00 0.00 0.00 74 1015.7
20260510105316 61 11 5.0 7.0 0.00 0.00 0.00 75 1015.5
20260510104812 61 10 3.0 4.0 0.00 0.00 0.00 74 1015.4
20260510104310 61 346 2.0 2.0 0.00 0.00 0.00 74 1015.3
20260510103806 61 31 2.0 2.0 0.00 0.00 0.00 74 1015.3
20260510103303 61 8 2.0 2.0 0.00 0.00 0.00 74 1015.2
20260510102804 61 17 1.0 2.0 0.00 0.00 0.00 75 1015.2
20260510102259 61 9 1.0 1.0 0.00 0.00 0.00 75 1015.3
20260510101757 61 12 2.0 2.0 0.00 0.00 0.00 76 1015.4
20260510101255 61 18 0.0 0.0 0.00 0.00 0.00 74 1015.3
20260510100751 61 14 0.0 0.0 0.00 0.00 0.00 75 1015.1
20260510100249 61 15 0.0 0.0 0.00 0.00 0.00 74 1015.3
20260510095744 62 23 0.0 0.0 0.00 0.00 0.00 73 1015.0
20260510095239 62 30 0.0 1.0 0.00 0.00 0.00 73 1015.1
20260510094738 62 12 0.0 0.0 0.00 0.00 0.00 72 1015.2
20260510094234 62 25 0.0 0.0 0.00 0.00 0.00 72 1015.1
20260510093730 62 10 2.0 2.0 0.00 0.00 0.00 72 1015.1
20260510093228 63 13 0.0 0.0 0.00 0.00 0.00 71 1014.9
20260510092724 63 17 0.0 0.0 0.00 0.00 0.00 71 1014.7
20260510092219 63 17 0.0 0.0 0.00 0.00 0.00 68 1014.6
20260510091715 64 19 1.0 1.0 0.00 0.00 0.00 68 1014.1
20260510091212 63 49 1.0 1.0 0.00 0.00 0.00 68 1014.2
20260510090708 63 21 0.0 0.0 0.00 0.00 0.00 68 1013.9
20260510090205 63 19 0.0 0.0 0.00 0.00 0.00 68 1014.2
20260510085700 63 19 0.0 0.0 0.00 0.00 0.00 69 1014.0
20260510085156 63 22 0.0 0.0 0.00 0.00 0.00 69 1013.9
20260510084652 63 19 0.0 0.0 0.00 0.00 0.00 68 1013.9
20260510084149 64 23 0.0 0.0 0.00 0.00 0.00 68 1013.7
20260510083646 64 26 0.0 0.0 0.00 0.00 0.00 68 1013.8
20260510083143 64 37 0.0 0.0 0.00 0.00 0.00 68 1013.9
20260510082639 64 23 0.0 0.0 0.00 0.00 0.00 68 1013.6
20260510082134 64 10 0.0 0.0 0.00 0.00 0.00 68 1013.8
20260510081629 64 15 0.0 0.0 0.00 0.00 0.00 67 1013.8
20260510081126 65 19 0.0 0.0 0.00 0.00 0.00 66 1013.9
20260510080625 65 12 0.0 0.0 0.00 0.00 0.00 65 1013.8
20260510080121 65 14 0.0 0.0 0.00 0.00 0.00 64 1013.7
20260510075619 66 36 1.0 1.0 0.00 0.00 0.00 63 1013.8
20260510075116 66 24 0.0 0.0 0.00 0.00 0.00 62 1013.8
20260510074613 66 13 1.0 1.0 0.00 0.00 0.00 61 1014.0
20260510074109 67 7 1.0 1.0 0.00 0.00 0.00 60 1013.8
20260510073605 67 10 1.0 1.0 0.00 0.00 0.00 60 1013.7
20260510073102 67 15 0.0 0.0 0.00 0.00 0.00 60 1013.9
20260510072559 68 7 0.0 1.0 0.00 0.00 0.00 58 1013.9
20260510072054 68 323 2.0 2.0 0.00 0.00 0.00 58 1013.8
20260510071551 68 18 0.0 0.0 0.00 0.00 0.00 57 1013.9
20260510071049 68 14 1.0 1.0 0.00 0.00 0.00 57 1014.1
20260510070545 68 322 2.0 2.0 0.00 0.00 0.00 59 1014.1
20260510070043 68 1 2.0 3.0 0.00 0.00 0.00 60 1013.7
20260510065539 68 1 3.0 3.0 0.00 0.00 0.00 60 1013.5
20260510065035 68 9 2.0 2.0 0.00 0.00 0.00 58 1013.5
20260510064531 69 17 2.0 2.0 0.00 0.00 0.00 55 1013.5
20260510064028 69 314 4.0 6.0 0.00 0.00 0.00 55 1013.1
20260510063525 69 329 2.0 2.0 0.00 0.00 0.00 54 1012.7
20260510063022 69 352 2.0 2.0 0.00 0.00 0.00 54 1012.2
20260510062518 69 103 3.0 6.0 0.00 0.00 0.00 55 1012.6
20260510062013 69 115 2.0 3.0 0.00 0.00 0.00 54 1012.9
20260510061510 69 66 2.0 2.0 0.00 0.00 0.00 54 1012.9
20260510061007 69 66 1.0 2.0 0.00 0.00 0.00 56 1013.1
20260510060504 69 52 1.0 2.0 0.00 0.00 0.00 55 1013.3
20260510055959 69 42 1.0 1.0 0.00 0.00 0.00 54 1013.2
20260510055455 69 45 1.0 1.0 0.00 0.00 0.00 54 1013.1
20260510054954 69 37 0.0 0.0 0.00 0.00 0.00 54 1013.2
20260510054449 69 33 1.0 1.0 0.00 0.00 0.00 55 1013.5
20260510053944 68 17 0.0 0.0 0.00 0.00 0.00 56 1013.4
20260510053440 68 108 1.0 2.0 0.00 0.00 0.00 58 1013.4
20260510052936 68 341 1.0 1.0 0.00 0.00 0.00 58 1013.5
20260510052432 68 336 0.0 1.0 0.00 0.00 0.00 60 1013.5
20260510051928 67 319 1.0 1.0 0.00 0.00 0.00 60 1013.6
20260510051425 66 72 1.0 2.0 0.00 0.00 0.00 62 1013.9
20260510050921 66 12 0.0 0.0 0.00 0.00 0.00 65 1013.6
20260510050418 66 11 0.0 0.0 0.00 0.00 0.00 67 1013.6
20260510045915 66 3 0.0 0.0 0.00 0.00 0.00 66 1013.5
20260510045413 66 9 0.0 0.0 0.00 0.00 0.00 67 1013.7
20260510044909 66 10 0.0 0.0 0.00 0.00 0.00 66 1013.7
20260510044406 66 10 0.0 0.0 0.00 0.00 0.00 64 1013.4
20260510043903 67 10 0.0 0.0 0.00 0.00 0.00 63 1013.5
20260510043358 67 10 0.0 0.0 0.00 0.00 0.00 60 1013.4
20260510042857 67 7 0.0 0.0 0.00 0.00 0.00 61 1013.3
20260510042352 67 4 0.0 0.0 0.00 0.00 0.00 62 1013.4
20260510041848 67 27 0.0 1.0 0.00 0.00 0.00 63 1013.4
20260510041346 66 24 0.0 0.0 0.00 0.00 0.00 63 1013.3
20260510040843 66 24 0.0 0.0 0.00 0.00 0.00 64 1013.4
20260510040340 66 26 0.0 0.0 0.00 0.00 0.00 64 1013.4
20260510035835 66 14 0.0 0.0 0.00 0.01 0.01 65 1013.5
20260510035331 65 20 0.0 0.0 0.00 0.01 0.01 66 1013.4
20260510034827 65 22 0.0 0.0 0.00 0.01 0.01 66 1013.3
20260510034325 65 17 0.0 0.0 0.00 0.01 0.01 66 1013.2
20260510033821 65 0 0.0 0.0 0.00 0.01 0.01 67 1013.1
20260510033319 65 26 0.0 0.0 0.00 0.01 0.01 67 1012.9
20260510032815 65 14 0.0 0.0 0.00 0.01 0.01 66 1012.9
20260510032312 65 2 0.0 0.0 0.00 0.01 0.01 66 1012.7
20260510031807 65 19 0.0 0.0 0.00 0.01 0.01 65 1012.8
20260510031304 66 19 0.0 0.0 0.00 0.01 0.01 66 1012.7
20260510030803 66 17 0.0 0.0 0.00 0.01 0.01 65 1012.5
20260510030300 66 16 0.0 0.0 0.00 0.01 0.01 63 1012.7
20260510025757 67 13 0.0 0.0 0.00 0.01 0.01 62 1012.6
20260510025255 67 17 0.0 0.0 0.00 0.01 0.01 61 1012.5
20260510024751 67 19 0.0 0.0 0.00 0.01 0.01 61 1012.3
20260510024248 67 17 0.0 0.0 0.00 0.01 0.01 62 1012.4
20260510023744 67 10 0.0 0.0 0.00 0.01 0.01 61 1012.3
20260510023241 68 9 0.0 0.0 0.00 0.01 0.01 60 1012.2
20260510022737 68 354 0.0 0.0 0.00 0.01 0.01 59 1012.1
20260510022237 68 352 0.0 0.0 0.00 0.01 0.01 59 1012.1
20260510021732 67 7 0.0 0.0 0.00 0.01 0.01 60 1011.6
20260510021230 68 14 0.0 0.0 0.00 0.01 0.01 61 1011.7
20260510020730 68 10 0.0 0.0 0.00 0.01 0.01 60 1011.6
20260510020225 69 9 0.0 0.0 0.00 0.01 0.01 58 1011.4
20260510015721 70 9 0.0 0.0 0.00 0.01 0.01 55 1011.3
20260510015218 70 358 0.0 0.0 0.00 0.01 0.01 55 1011.3
20260510014713 70 352 0.0 0.0 0.00 0.01 0.01 55 1011.1
20260510014211 70 359 0.0 0.0 0.00 0.01 0.01 54 1011.0
20260510013706 71 5 0.0 0.0 0.00 0.01 0.01 54 1010.7
20260510013202 71 0 0.0 0.0 0.00 0.01 0.01 54 1010.9
20260510012701 72 9 0.0 0.0 0.00 0.01 0.01 51 1010.7
20260510012157 72 14 0.0 0.0 0.00 0.01 0.01 49 1010.7
20260510011652 73 14 0.0 0.0 0.00 0.01 0.01 49 1010.3
20260510011148 74 14 0.0 0.0 0.00 0.01 0.01 48 1010.3
20260510010644 75 14 0.0 0.0 0.00 0.01 0.01 46 1010.3
20260510010142 75 11 0.0 0.0 0.00 0.01 0.01 44 1010.2
20260510005637 76 19 0.0 0.0 0.00 0.01 0.01 44 1010.3
20260510005135 76 30 0.0 1.0 0.00 0.01 0.01 43 1010.3
20260510004633 77 359 0.0 0.0 0.00 0.01 0.01 43 1010.1
20260510004131 77 23 0.0 1.0 0.00 0.01 0.01 41 1010.3
20260510003627 78 332 2.0 2.0 0.00 0.01 0.01 40 1010.1
20260510003123 78 257 2.0 2.0 0.00 0.01 0.01 39 1010.1
20260510002617 79 123 3.0 4.0 0.00 0.01 0.01 38 1010.2
20260510002115 79 200 4.0 6.0 0.00 0.01 0.01 38 1010.2
20260510001612 80 214 3.0 4.0 0.00 0.01 0.01 37 1010.0
20260510001111 80 179 2.0 3.0 0.00 0.01 0.01 36 1010.1
20260510000610 80 103 1.0 2.0 0.00 0.01 0.01 34 1010.1
20260510000108 81 220 1.0 2.0 0.00 0.01 0.01 35 1010.3
20260509235604 81 180 3.0 3.0 0.00 0.01 0.01 34 1010.2
20260509235101 82 188 3.0 3.0 0.00 0.01 0.01 34 1010.1
20260509234557 81 6 0.0 0.0 0.00 0.01 0.01 35 1010.3
20260509234055 81 311 1.0 1.0 0.00 0.01 0.01 34 1010.1
20260509233552 83 221 3.0 4.0 0.00 0.01 0.01 31 1010.1
20260509233050 83 6 1.0 2.0 0.00 0.01 0.01 33 1010.2
20260509232546 84 359 0.0 0.0 0.00 0.01 0.01 32 1010.2
20260509232043 84 345 1.0 1.0 0.00 0.01 0.01 32 1010.3
20260509231539 84 18 0.0 0.0 0.00 0.01 0.01 30 1010.3
20260509231037 84 318 1.0 1.0 0.00 0.01 0.01 30 1010.4
20260509230533 84 13 1.0 2.0 0.00 0.01 0.01 31 1010.3
20260509230031 84 338 1.0 1.0 0.00 0.01 0.01 28 1010.2
20260509225526 84 38 0.0 0.0 0.00 0.01 0.01 30 1010.4
20260509225022 84 27 1.0 2.0 0.00 0.01 0.01 29 1010.4
20260509224518 84 26 0.0 1.0 0.00 0.01 0.01 29 1010.3
20260509224014 84 260 2.0 2.0 0.00 0.01 0.01 30 1010.3
20260509223511 85 323 3.0 4.0 0.00 0.01 0.01 30 1010.2
20260509223010 84 34 1.0 2.0 0.00 0.01 0.01 32 1010.2
20260509222505 83 166 6.0 7.0 0.00 0.01 0.01 30 1010.5
20260509222001 83 181 5.0 7.0 0.00 0.01 0.01 30 1010.3
20260509221457 85 220 4.0 4.0 0.00 0.01 0.01 31 1010.4
20260509220953 85 294 2.0 2.0 0.00 0.01 0.01 30 1010.3
20260509220449 84 200 2.0 3.0 0.00 0.01 0.01 30 1010.5
20260509215945 84 356 2.0 2.0 0.00 0.01 0.01 33 1010.5
20260509215440 84 288 1.0 1.0 0.00 0.01 0.01 30 1010.3
20260509214938 85 294 2.0 3.0 0.00 0.01 0.01 30 1010.4
20260509214435 85 193 3.0 3.0 0.00 0.01 0.01 30 1010.3
20260509213932 85 359 1.0 2.0 0.00 0.01 0.01 30 1010.4
20260509213428 86 266 4.0 6.0 0.00 0.01 0.01 30 1010.5
20260509212926 84 328 1.0 1.0 0.00 0.01 0.01 31 1010.2
20260509212423 84 316 2.0 2.0 0.00 0.01 0.01 31 1010.5
20260509211919 84 352 3.0 4.0 0.00 0.01 0.01 29 1010.5
20260509211415 84 69 1.0 1.0 0.00 0.01 0.01 32 1010.4
20260509210911 84 161 2.0 2.0 0.00 0.01 0.01 32 1010.7
20260509210409 83 200 7.0 9.0 0.00 0.01 0.01 33 1010.9
20260509205904 84 271 4.0 6.0 0.00 0.01 0.01 34 1010.9
20260509205403 84 239 3.0 3.0 0.00 0.01 0.01 32 1010.9
20260509204900 84 354 3.0 4.0 0.00 0.01 0.01 30 1011.0
20260509204356 84 211 4.0 6.0 0.00 0.01 0.01 33 1011.0
20260509203853 86 188 2.0 3.0 0.00 0.01 0.01 32 1011.0
20260509203349 84 315 1.0 1.0 0.00 0.01 0.01 33 1011.0
20260509202847 84 238 2.0 3.0 0.00 0.01 0.01 34 1011.1
20260509202342 84 319 4.0 4.0 0.00 0.01 0.01 32 1011.2
20260509201837 83 265 3.0 4.0 0.00 0.01 0.01 34 1011.3
20260509201328 83 32 2.0 4.0 0.00 0.01 0.01 37 1011.4
20260509200825 84 331 6.0 7.0 0.00 0.01 0.01 33 1011.3
20260509200320 83 137 2.0 3.0 0.00 0.01 0.01 34 1011.4
20260509195816 83 215 4.0 6.0 0.00 0.01 0.01 34 1011.4
20260509195311 84 163 6.0 8.0 0.00 0.01 0.01 33 1011.5
20260509194811 84 11 2.0 3.0 0.00 0.01 0.01 35 1011.2
20260509194307 83 263 2.0 2.0 0.00 0.01 0.01 35 1011.6
20260509193804 83 274 2.0 2.0 0.00 0.01 0.01 32 1011.5
20260509193304 83 4 4.0 6.0 0.00 0.01 0.01 35 1011.4
20260509192800 83 347 2.0 2.0 0.00 0.01 0.01 37 1011.5
20260509192256 83 187 4.0 7.0 0.00 0.01 0.01 36 1011.5
20260509191751 82 23 2.0 3.0 0.00 0.01 0.01 38 1011.4
20260509191248 82 358 1.0 2.0 0.00 0.01 0.01 36 1011.6
20260509190743 82 2 1.0 1.0 0.00 0.01 0.01 40 1011.6
20260509190241 83 211 2.0 3.0 0.00 0.01 0.01 38 1011.6
20260509185738 82 97 0.0 1.0 0.00 0.01 0.01 39 1011.7
20260509185234 82 111 1.0 2.0 0.00 0.01 0.01 40 1011.8
20260509184732 82 312 2.0 2.0 0.00 0.01 0.01 45 1011.6
20260509184229 82 265 3.0 4.0 0.00 0.01 0.01 40 1011.9
20260509183725 81 282 4.0 4.0 0.00 0.01 0.01 41 1011.8
20260509183221 80 202 4.0 7.0 0.00 0.01 0.01 41 1011.9
20260509182716 81 225 4.0 6.0 0.00 0.01 0.01 45 1011.9
20260509182214 81 200 3.0 3.0 0.00 0.01 0.01 45 1011.8
20260509181712 81 164 0.0 1.0 0.00 0.01 0.01 47 1011.9
20260509181209 82 226 3.0 4.0 0.00 0.01 0.01 43 1012.1
20260509180706 80 169 1.0 2.0 0.00 0.01 0.01 45 1012.0
20260509180202 80 236 2.0 2.0 0.00 0.01 0.01 46 1011.8
20260509175658 81 345 0.0 0.0 0.00 0.01 0.01 44 1012.1
20260509175155 81 219 4.0 6.0 0.00 0.01 0.01 43 1012.0
20260509174651 80 87 2.0 2.0 0.00 0.01 0.01 40 1012.0
20260509174150 80 260 3.0 3.0 0.00 0.01 0.01 43 1012.1
20260509173647 80 252 3.0 4.0 0.00 0.01 0.01 41 1012.0
20260509173143 81 356 2.0 4.0 0.00 0.01 0.01 38 1012.1
20260509172639 80 133 0.0 1.0 0.00 0.01 0.01 38 1012.0
20260509172136 80 14 0.0 1.0 0.00 0.01 0.01 40 1012.2
20260509171631 80 327 0.0 0.0 0.00 0.01 0.01 39 1012.1
20260509171128 80 0 0.0 0.0 0.00 0.01 0.01 46 1012.1
20260509170625 80 9 0.0 0.0 0.00 0.01 0.01 46 1012.1
20260509170121 79 236 2.0 2.0 0.00 0.01 0.01 46 1012.0
20260509165619 80 207 2.0 3.0 0.00 0.01 0.01 43 1011.9
20260509165115 80 345 0.0 1.0 0.00 0.01 0.01 48 1012.1
20260509164611 80 293 2.0 2.0 0.00 0.01 0.01 45 1012.0
20260509164107 79 321 1.0 1.0 0.00 0.01 0.01 46 1012.2
20260509163605 78 334 0.0 1.0 0.00 0.01 0.01 47 1012.1
20260509163100 78 358 2.0 2.0 0.00 0.01 0.01 51 1012.2
20260509162557 78 14 1.0 1.0 0.00 0.01 0.01 53 1012.0
20260509162053 78 348 0.0 0.0 0.00 0.01 0.01 54 1012.1
20260509161545 77 343 1.0 2.0 0.00 0.01 0.01 53 1012.1
20260509161045 76 226 1.0 3.0 0.00 0.01 0.01 53 1012.1
20260509160541 76 185 4.0 4.0 0.00 0.01 0.01 52 1012.0
20260509160037 76 233 3.0 3.0 0.00 0.01 0.01 52 1012.1
20260509155533 75 216 1.0 2.0 0.00 0.01 0.01 56 1012.1
20260509155029 75 1 2.0 3.0 0.00 0.01 0.01 58 1012.1
20260509154525 75 358 0.0 0.0 0.00 0.01 0.01 58 1012.0
20260509154023 74 172 2.0 2.0 0.00 0.01 0.01 57 1012.0
20260509153520 74 174 2.0 2.0 0.00 0.01 0.01 59 1012.0
20260509153017 74 246 3.0 3.0 0.00 0.01 0.01 59 1012.1
20260509152512 73 85 1.0 2.0 0.00 0.01 0.01 60 1011.9
20260509152009 73 202 2.0 2.0 0.00 0.01 0.01 62 1012.1
20260509151506 73 137 3.0 4.0 0.00 0.01 0.01 63 1011.9
20260509151004 73 320 2.0 2.0 0.00 0.01 0.01 64 1012.2
20260509150501 72 15 1.0 2.0 0.00 0.01 0.01 68 1012.2
20260509145959 70 45 0.0 1.0 0.00 0.01 0.01 72 1012.0
20260509145455 70 52 2.0 2.0 0.00 0.01 0.01 68 1012.0
20260509144950 69 320 2.0 2.0 0.00 0.01 0.01 73 1012.0
20260509144447 68 343 1.0 1.0 0.00 0.01 0.01 75 1011.9
20260509143944 68 295 2.0 2.0 0.00 0.01 0.01 77 1012.0
20260509143441 67 350 1.0 1.0 0.00 0.01 0.01 78 1012.2
20260509142938 66 345 3.0 3.0 0.00 0.01 0.01 80 1012.1
20260509142434 66 346 2.0 2.0 0.00 0.01 0.01 82 1012.1
20260509141930 66 298 3.0 3.0 0.00 0.01 0.01 81 1011.9
20260509141427 66 354 3.0 4.0 0.00 0.01 0.01 84 1011.9
20260509140924 66 10 1.0 2.0 0.00 0.01 0.01 84 1011.7
20260509140420 65 350 3.0 3.0 0.00 0.01 0.01 84 1011.9
20260509135918 65 9 3.0 3.0 0.00 0.01 0.01 84 1011.8
20260509135415 65 6 1.0 1.0 0.00 0.01 0.01 86 1011.6
20260509134913 64 248 1.0 2.0 0.00 0.01 0.01 86 1011.6
20260509134410 64 336 0.0 1.0 0.00 0.01 0.01 89 1011.5
20260509133907 63 0 1.0 1.0 0.00 0.01 0.01 90 1011.6
20260509133403 63 21 0.0 0.0 0.00 0.01 0.01 92 1011.7
20260509132902 62 356 0.0 1.0 0.00 0.01 0.01 94 1011.8
20260509132400 62 230 1.0 1.0 0.00 0.01 0.01 95 1011.7
20260509131857 61 352 1.0 2.0 0.00 0.01 0.01 96 1011.7
20260509131354 60 14 0.0 1.0 0.00 0.01 0.01 97 1011.7
20260509130850 61 322 2.0 2.0 0.00 0.01 0.01 97 1011.6
20260509130345 60 18 0.0 0.0 0.00 0.01 0.01 97 1011.5
20260509125843 60 317 0.0 0.0 0.00 0.01 0.01 98 1011.7
20260509125339 59 53 1.0 1.0 0.00 0.01 0.01 98 1011.8
20260509124835 59 336 1.0 2.0 0.00 0.01 0.01 98 1011.6
20260509124332 59 30 2.0 2.0 0.00 0.01 0.01 98 1011.7
20260509123830 58 44 1.0 1.0 0.00 0.01 0.01 98 1011.4
20260509123327 58 0 1.0 2.0 0.00 0.01 0.01 98 1011.5
20260509122823 57 10 0.0 1.0 0.00 0.01 0.01 98 1011.6
20260509122320 57 348 0.0 0.0 0.00 0.01 0.01 98 1011.2
20260509121817 57 27 0.0 0.0 0.00 0.01 0.01 98 1011.5
20260509121314 57 7 0.0 0.0 0.00 0.01 0.01 98 1011.3
20260509120813 57 6 0.0 0.0 0.00 0.01 0.01 98 1011.3
20260509120310 57 6 0.0 0.0 0.00 0.01 0.01 98 1011.3